This is the latest recevied weather packets stored in our database for station/object VA3XLT-1. If no packets are shown the sender has not sent any weather packets the latest 10 day(s).
| Time | Temp. | Humidity | Pressure | Rain* | Wind** | Luminosity | Snow |
|---|---|---|---|---|---|---|---|
| 1778098654 | 13.89° C | 60% | 1012.3 hPa | 0 mm | - | - | - |
| 1778098354 | 13.33° C | 58% | 1012.3 hPa | 0 mm | - | - | - |
| 1778098054 | 13.89° C | 56% | 1012.4 hPa | 0 mm | - | - | - |
| 1778097754 | 14.44° C | 55% | 1012.5 hPa | 0 mm | - | - | - |
| 1778097454 | 15° C | 53% | 1012.4 hPa | 0 mm | - | - | - |
| 1778097154 | 15° C | 56% | 1012.5 hPa | 0 mm | - | - | - |
| 1778096854 | 15° C | 53% | 1012.5 hPa | 0 mm | - | - | - |
| 1778096554 | 15° C | 59% | 1012.3 hPa | 0 mm | - | - | - |
| 1778096254 | 13.89° C | 53% | 1012.3 hPa | 0 mm | - | - | - |
| 1778095954 | 15° C | 52% | 1012.3 hPa | 0 mm | - | - | - |
| 1778095654 | 14.44° C | 53% | 1012.3 hPa | 0 mm | - | - | - |
| 1778095354 | 14.44° C | 53% | 1012.3 hPa | 0 mm | - | - | - |
| 1778095054 | 14.44° C | 50% | 1012.1 hPa | 0 mm | - | - | - |
| 1778094754 | 14.44° C | 53% | 1012.3 hPa | 0 mm | - | - | - |
| 1778094454 | 13.33° C | 54% | 1012.4 hPa | 0 mm | - | - | - |
| 1778094154 | 13.89° C | 54% | 1012.4 hPa | 0 mm | - | - | - |
| 1778093854 | 13.89° C | 55% | 1012.4 hPa | 0 mm | - | - | - |
| 1778093554 | 13.89° C | 55% | 1012.4 hPa | 0 mm | - | - | - |
| 1778093254 | 13.33° C | 53% | 1012.4 hPa | 0 mm | - | - | - |
| 1778092954 | 12.78° C | 57% | 1012.5 hPa | 0 mm | - | - | - |
| 1778092654 | 12.22° C | 58% | 1012.5 hPa | 0 mm | - | - | - |
| 1778092354 | 12.78° C | 60% | 1012.4 hPa | 0 mm | - | - | - |
| 1778092054 | 12.22° C | 56% | 1012.5 hPa | 0 mm | - | - | - |
| 1778091754 | 13.33° C | 52% | 1012.5 hPa | 0 mm | - | - | - |
| 1778091454 | 13.89° C | 58% | 1012.4 hPa | 0 mm | - | - | - |
* Rain latest hour (hover to see other rain measurements)
** Current wind speed in m/s (hover to see current wind gust speed)